Location: Zagreb
(45.8000°N, 16.0000°E)
Time: 20:44:37
(UTC+01:00)

Tiros 1 despin weight - Pass Details

Date: 26 January 2020
Orbit: 594 x 642 km, 48.2° (Epoch: 24 February)

Event Time Altitude Azimuth Distance (km) Brightness Sun altitude
Rises 14:18:40 0° 282° (WNW) 2,890 ? 19.0°
Reaches altitude 10° 14:20:59 10° 285° (WNW) 1,992 ? 18.8°
Maximum altitude 14:25:34 69° 9° (N) 673 ? 18.4°
Drops below altitude 10° 14:30:12 10° 93° (E) 2,017 ? 17.9°
Sets 14:32:33 0° 96° (E) 2,930 ? 17.7°
